This is the latest recevied weather packets stored in our database for station/object R1ZAAG-14. If no packets are shown the sender has not sent any weather packets the latest 10 day(s).
| Time | Temp. | Humidity | Pressure | Rain* | Wind** | Luminosity | Snow |
|---|---|---|---|---|---|---|---|
| 1778134285 | 3.33° C | 54% | 1013.9 hPa | - | - | - | - |
| 1778133389 | 2.78° C | 55% | 1013.6 hPa | - | - | - | - |
| 1778133384 | 2.78° C | 55% | 1013.6 hPa | - | - | - | - |
| 1778132493 | 2.78° C | 58% | 1013.6 hPa | - | - | - | - |
| 1778132483 | 2.78° C | 58% | 1013.6 hPa | - | - | - | - |
| 1778131587 | 2.78° C | 60% | 1013.5 hPa | - | - | - | - |
| 1778131581 | 2.78° C | 60% | 1013.5 hPa | - | - | - | - |
| 1778130689 | 2.78° C | 60% | 1013.4 hPa | - | - | - | - |
| 1778130679 | 2.78° C | 60% | 1013.4 hPa | - | - | - | - |
| 1778129786 | 2.22° C | 62% | 1013.3 hPa | - | - | - | - |
| 1778129779 | 2.22° C | 62% | 1013.3 hPa | - | - | - | - |
| 1778128887 | 2.22° C | 62% | 1013.3 hPa | - | - | - | - |
| 1778128878 | 2.22° C | 62% | 1013.3 hPa | - | - | - | - |
| 1778127999 | 2.22° C | 63% | 1013.2 hPa | - | - | - | - |
| 1778127098 | 2.22° C | 64% | 1013.2 hPa | - | - | - | - |
| 1778126198 | 1.67° C | 64% | 1013.2 hPa | - | - | - | - |
| 1778125297 | 1.67° C | 67% | 1013.1 hPa | - | - | - | - |
| 1778124397 | 1.11° C | 70% | 1013 hPa | - | - | - | - |
| 1778123496 | 1.11° C | 73% | 1012.9 hPa | - | - | - | - |
| 1778122596 | 0° C | 76% | 1012.9 hPa | - | - | - | - |
| 1778120796 | 0.56° C | 71% | 1012.7 hPa | - | - | - | - |
| 1778120789 | 0.56° C | 71% | 1012.7 hPa | - | - | - | - |
| 1778119892 | 0° C | 73% | 1012.7 hPa | - | - | - | - |
| 1778119888 | 0° C | 73% | 1012.7 hPa | - | - | - | - |
| 1778118993 | 0° C | 77% | 1012.6 hPa | - | - | - | - |
* Rain since midnight (hover to see other rain measurements)
** Current wind speed in m/s (hover to see current wind gust speed)